KL-BETA A (49059 NORAD) Tracking and Keplerian Element Data

This shows tracking and keplerian element data for the satellite.

Feedback or suggestion? Click here.




ElementValue
Catalog49059
NameKL-BETA A
Epoch Orbit637
Epoch Day262.12640611
Epoch Year2021
RAAN48.2657
Inclination88.994
Eccentricity0.00098
Argument of Perigee103.5083
Mean Anonmoly256.7189
Mean Motion13.97206924
Decay Rate1.2E-07
L11 49059U 21070A 21262.12640611 .00000012 00000-0 -14838-5 0 9994
L22 49059 88.9940 48.2657 0009800 103.5083 256.7189 13.97206924 6373

Live tracking and technical data element details for KL-BETA A (NORAD 49059). KL-BETA A can be tracked NOW for your location showing map with azimuth and elevation plus other details from your city location.

Track the satellite on the map from your city or location and see movement details for azimuth, elevation, latitude, longitude, range, height, and movement on the map or in text.







IsCatalogInMostPopularTable: catalog: 49059, numindb: 17
Update: records affected: 1



GetName: 49059 KL-BETA A

Hit Count: updated at: Fri, 24 Sep 2021 19:13:23 GMT